Location: Buckenweiler
(49.0667°N, 10.2500°E)
Time: 19:54:30
(UTC+00:00)

Lacrosse 5 rocket - Pass Details

Date: 18 January 2026
Orbit: 401 x 482 km, 57.0° (Epoch: 13 February)

Event Time Altitude Azimuth Distance (km) Brightness Sun altitude
Exits shadow 03:48:50 12° 46° (NE) 1,550 4.1 -31.7°
Drops below altitude 10° 03:49:15 10° 50° (NE) 1,683 4.4 -31.6°
Sets 03:51:42 0° 64° (ENE) 2,566 5.7 -31.2°
